TimeCST,TemperatureF,Dew PointF,Humidity,Sea Level PressureIn,VisibilityMPH,Wind Direction,Wind SpeedMPH,Gust SpeedMPH,PrecipitationIn,Events,Conditions,WindDirDegrees,DateUTC
12:53 AM,45.0,30.0,56,30.17,10.0,SE,11.5,-,N/A,,Overcast,130,2013-01-27 06:53:00
1:53 AM,45.0,30.9,58,30.17,10.0,SE,8.1,-,N/A,,Overcast,140,2013-01-27 07:53:00
2:53 AM,44.1,32.0,63,30.16,10.0,SE,10.4,-,N/A,,Overcast,130,2013-01-27 08:53:00
3:53 AM,44.1,32.0,63,30.15,10.0,SE,11.5,-,N/A,,Overcast,140,2013-01-27 09:53:00
4:53 AM,44.1,33.1,65,30.12,10.0,SE,11.5,-,N/A,,Overcast,140,2013-01-27 10:53:00
5:46 AM,42.8,35.6,76,30.11,10.0,SE,15.0,-,0.00,Rain,Light Rain,140,2013-01-27 11:46:00
5:53 AM,43.0,36.0,76,30.12,10.0,SE,12.7,-,0.00,Rain,Light Rain,140,2013-01-27 11:53:00
6:53 AM,44.1,37.9,79,30.11,10.0,SSE,16.1,-,0.00,Rain,Light Rain,150,2013-01-27 12:53:00
7:01 AM,44.6,37.4,76,30.11,10.0,SSE,16.1,-,N/A,,Overcast,150,2013-01-27 13:01:00
7:53 AM,44.1,37.9,79,30.13,10.0,SSE,12.7,-,N/A,,Overcast,150,2013-01-27 13:53:00
8:53 AM,44.1,39.0,82,30.13,9.0,SE,12.7,-,0.00,Rain,Light Rain,140,2013-01-27 14:53:00
9:53 AM,44.1,42.1,93,30.12,7.0,SE,13.8,-,0.00,,Overcast,140,2013-01-27 15:53:00
10:39 AM,44.6,42.8,93,30.11,5.0,SE,12.7,-,0.00,Rain,Light Rain,140,2013-01-27 16:39:00
10:53 AM,45.0,44.1,97,30.12,5.0,SE,11.5,-,0.01,Rain,Light Rain,130,2013-01-27 16:53:00
11:12 AM,46.4,44.6,93,30.11,4.0,SE,9.2,-,0.00,Rain,Light Rain,140,2013-01-27 17:12:00
11:14 AM,46.4,44.6,93,30.11,4.0,SE,11.5,-,0.00,Rain,Light Rain,140,2013-01-27 17:14:00
11:53 AM,46.9,46.0,97,30.10,4.0,SE,11.5,-,0.01,Rain,Light Rain,140,2013-01-27 17:53:00
12:53 PM,48.9,48.0,97,30.06,4.0,SSE,9.2,-,0.00,,Overcast,150,2013-01-27 18:53:00
1:16 PM,51.8,50.0,94,30.04,10.0,South,12.7,-,N/A,,Overcast,170,2013-01-27 19:16:00
1:53 PM,53.1,50.0,89,30.03,10.0,South,9.2,-,N/A,,Overcast,190,2013-01-27 19:53:00
2:53 PM,55.0,51.1,86,30.00,10.0,South,12.7,21.9,0.00,,Scattered Clouds,180,2013-01-27 20:53:00
3:14 PM,55.4,51.8,88,30.00,10.0,South,11.5,19.6,N/A,,Mostly Cloudy,190,2013-01-27 21:14:00
3:37 PM,55.4,51.8,88,30.01,10.0,South,10.4,17.3,N/A,,Mostly Cloudy,190,2013-01-27 21:37:00
3:53 PM,55.0,51.1,86,29.99,10.0,South,12.7,-,N/A,,Overcast,180,2013-01-27 21:53:00
4:08 PM,53.6,50.0,88,29.99,10.0,South,12.7,21.9,N/A,,Mostly Cloudy,180,2013-01-27 22:08:00
4:25 PM,53.6,50.0,88,29.99,10.0,South,12.7,19.6,0.00,Rain,Light Rain,180,2013-01-27 22:25:00
4:42 PM,53.6,50.0,88,29.98,10.0,South,12.7,-,0.00,,Overcast,180,2013-01-27 22:42:00
4:53 PM,54.0,51.1,90,29.99,10.0,South,10.4,17.3,0.00,Rain,Light Rain,190,2013-01-27 22:53:00
5:06 PM,53.6,51.8,94,29.99,10.0,South,8.1,-,0.00,,Overcast,190,2013-01-27 23:06:00
5:39 PM,53.6,51.8,94,29.99,10.0,South,10.4,-,0.00,,Overcast,170,2013-01-27 23:39:00
5:53 PM,54.0,51.1,90,29.99,10.0,South,11.5,-,0.00,,Overcast,180,2013-01-27 23:53:00
6:53 PM,54.0,51.1,90,30.01,10.0,South,9.2,-,0.00,,Overcast,190,2013-01-28 00:53:00
7:53 PM,54.0,52.0,93,30.01,10.0,South,12.7,19.6,N/A,,Overcast,170,2013-01-28 01:53:00
8:12 PM,55.4,51.8,88,30.00,10.0,South,13.8,-,N/A,,Overcast,170,2013-01-28 02:12:00
8:53 PM,55.9,53.1,90,30.00,10.0,South,12.7,-,N/A,,Overcast,170,2013-01-28 02:53:00
9:53 PM,57.0,53.1,87,29.99,10.0,South,13.8,-,N/A,,Overcast,170,2013-01-28 03:53:00
10:27 PM,57.2,53.6,88,29.99,10.0,South,16.1,-,N/A,,Mostly Cloudy,170,2013-01-28 04:27:00
10:53 PM,57.9,54.0,87,29.98,10.0,South,16.1,23.0,N/A,,Mostly Cloudy,180,2013-01-28 04:53:00
11:53 PM,60.1,55.0,83,29.97,10.0,South,16.1,31.1,N/A,,Clear,190,2013-01-28 05:53:00